Location: Wavehorne
(51.0500°N, 0.8333°E)
Time: 19:56:39
(UTC+00:00)

SL-16 R/B - Pass Details

Date: 20 June 2021
Orbit: 842 x 847 km, 71.0° (Epoch: 31 July)

Event Time Altitude Azimuth Distance (km) Brightness Sun altitude
Exits shadow 02:01:53 - 258° (WSW) 3,376 4.9 -10.7°
Reaches altitude 10° 02:04:49 10° 273° (W) 2,469 4.4 -10.5°
Maximum altitude 02:09:10 22° 323° (NW) 1,764 4.2 -10.1°
Drops below altitude 10° 02:13:33 10° 14° (NNE) 2,475 6.0 -9.8°
Sets 02:16:34 0° 29° (NNE) 3,413 7.8 -9.5°
